Location: *
(50.5492°N, 7.7469°E)
Time: 10:47:00
(UTC+00:00)

CZ-2C R/B - Pass Details

Date: 21 October 2019
Orbit: 703 x 908 km, 98.1° (Epoch: 13 November)

Event Time Altitude Azimuth Distance (km) Brightness Sun altitude
Exits shadow 19:38:10 59° 353° (N) 1,041 3.6 -30.8°
Drops below altitude 10° 19:42:44 10° 347° (NNW) 2,563 6.1 -31.5°
Sets 19:45:07 0° 347° (NNW) 3,486 6.9 -31.9°
